(360900) = 2005 SG157

Discovered at Kitt Peak on 2005-09-26 by Spacewatch.

Orbit

Orbit type: Main Belt

Note: WebGL enabled browser required.

epoch2023-02-25.0
epoch JD2460000.5
perihelion date2022-05-24.50623
perihelion JD2459724.00623
argument of perihelion (°)27.78069
ascending node (°)57.05054
inclination (°)2.16037
eccentricity0.1237490
perihelion distance (AU)2.6600309
Tisserand w.r.t. Jupiter3.2
ΔV w.r.t. Earth (km/sec)10.2
semimajor axis (AU)3.0356951
mean anomaly (°)51.52310
mean daily motion (°/day)0.18634450
aphelion distance (AU)3.411
period (years)5.29
P-vector [x]0.09036758
P-vector [y]0.90659702
P-vector [z]0.41220814
Q-vector [x]-0.99540597
Q-vector [y]0.06907523
Q-vector [z]0.06629910
absolute magnitude16.94
phase slope0.15
uncertainty0
referenceMPEC 2023-D50
observations used163
oppositions11
arc length (days)8123
first opposition used2000
last opposition used2023
residual rms (arc-secs)0.87
perturbers coarse indicatorM-v
perturbers precise indicator003Ek
first observation date used2000-11-27.0
last observation date used2023-02-22.0
computer nameMPCLINUX
Minimum Orbit Intersection Distances (in AU)
for orbit epoch: 2460000.5, reference: E2023-D50
Mercury2.35248
Venus1.9401
Earth1.67543
Mars1.07139
Jupiter1.7956
Saturn6.40148
Uranus15.3971
Neptune26.8669

Observations

165 total observations over interval: 2000 11 27.09209 – 2023 02 22.688651
These data are available for download (format description).

Date (UT) J2000 RA J2000 Dec Magn Location Ref
2000 11 27.09209 03 12 48.49 +17 48 43.5 21.3 V 691 – Steward Observatory, Kitt Peak-Spacewatch MPS 198155
2000 11 27.11582 03 12 47.31 +17 48 40.5 21.1 V 691 – Steward Observatory, Kitt Peak-Spacewatch MPS 198155
2000 11 27.13803 03 12 46.18 +17 48 37.6 20.9 V 691 – Steward Observatory, Kitt Peak-Spacewatch MPS 198155
2005 09 26.33523 01 43 38.62 +08 31 56.0 21.2 V 691 – Steward Observatory, Kitt Peak-Spacewatch MPS 144330
2005 09 26.35264 01 43 37.95 +08 31 53.0 21.2 V 691 – Steward Observatory, Kitt Peak-Spacewatch MPS 144330
2005 09 26.37006 01 43 37.26 +08 31 48.9 20.7 V 691 – Steward Observatory, Kitt Peak-Spacewatch MPS 144330
2005 10 01.30882 01 40 25.10 +08 14 53.5 20.6 V G96 – Mt. Lemmon Survey MPS 144330
2005 10 01.31525 01 40 24.81 +08 14 52.0 20.7 V G96 – Mt. Lemmon Survey MPS 144330
2005 10 01.32167 01 40 24.56 +08 14 50.8 20.8 V G96 – Mt. Lemmon Survey MPS 144330
2005 10 01.32811 01 40 24.27 +08 14 49.6 20.9 V G96 – Mt. Lemmon Survey MPS 144330
2005 10 07.27573 01 36 05.34 +07 52 18.7 21.3 V 691 – Steward Observatory, Kitt Peak-Spacewatch MPS 147579
2005 10 07.29312 01 36 04.52 +07 52 14.5 21.2 V 691 – Steward Observatory, Kitt Peak-Spacewatch MPS 147579
2005 10 07.31050 01 36 03.70 +07 52 10.4 21.2 V 691 – Steward Observatory, Kitt Peak-Spacewatch MPS 147579
2005 10 11.27654 01 32 59.09 +07 36 18.9 20.6 V 691 – Steward Observatory, Kitt Peak-Spacewatch MPS 147579
2005 10 11.29389 01 32 58.22 +07 36 15.0 21.0 V 691 – Steward Observatory, Kitt Peak-Spacewatch MPS 147579
2005 10 11.31124 01 32 57.35 +07 36 10.4 20.6 V 691 – Steward Observatory, Kitt Peak-Spacewatch MPS 147579
2005 10 29.27374 01 18 43.92 +06 25 19.7 20.7 V G96 – Mt. Lemmon Survey MPS 147579
2005 10 29.28003 01 18 43.63 +06 25 18.4 20.8 V G96 – Mt. Lemmon Survey MPS 147579
2005 10 29.28618 01 18 43.38 +06 25 16.7 20.7 V G96 – Mt. Lemmon Survey MPS 147579
2005 10 29.29263 01 18 43.09 +06 25 15.8 20.9 V G96 – Mt. Lemmon Survey MPS 147579
2005 11 25.23852 01 04 54.37 +05 29 36.3 21.2 V G96 – Mt. Lemmon Survey MPS 152152
2005 11 25.24535 01 04 54.30 +05 29 36.4 20.8 V G96 – Mt. Lemmon Survey MPS 152152
2005 11 25.25204 01 04 54.19 +05 29 35.9 21.7 V G96 – Mt. Lemmon Survey MPS 152152
2005 11 25.25876 01 04 54.08 +05 29 35.9 22.5 V G96 – Mt. Lemmon Survey MPS 152152
2007 01 26.31561 09 26 09.98 +18 31 18.7 21.1 V 691 – Steward Observatory, Kitt Peak-Spacewatch MPS 198155
2007 01 26.33342 09 26 09.09 +18 31 23.7 20.9 V 691 – Steward Observatory, Kitt Peak-Spacewatch MPS 198155
2007 01 26.35148 09 26 08.20 +18 31 28.5 21.0 V 691 – Steward Observatory, Kitt Peak-Spacewatch MPS 198155
2007 02 06.40580 09 16 44.14 +19 17 44.8 20.8 V G96 – Mt. Lemmon Survey MPS 198719
2007 02 06.41257 09 16 43.82 +19 17 46.2 20.6 V G96 – Mt. Lemmon Survey MPS 198719
2007 02 06.41924 09 16 43.42 +19 17 48.1 20.7 V G96 – Mt. Lemmon Survey MPS 198719
2007 02 06.42609 09 16 43.06 +19 17 49.8 20.3 V G96 – Mt. Lemmon Survey MPS 198719
2011 12 16.48322 07 20 16.26 +24 25 03.9 21.1 V G96 – Mt. Lemmon Survey MPS 403838
2011 12 16.48830 07 20 16.00 +24 25 05.2 21.9 V G96 – Mt. Lemmon Survey MPS 403838
2011 12 16.49333 07 20 15.79 +24 25 05.0 21.6 V G96 – Mt. Lemmon Survey MPS 403838
2011 12 16.49843 07 20 15.54 +24 25 05.6 21.5 V G96 – Mt. Lemmon Survey MPS 403838
2012 01 05.20904 07 03 14.86 +25 10 02.5 20.4 V 691 – Steward Observatory, Kitt Peak-Spacewatch MPS 405940
2012 01 05.22683 07 03 13.89 +25 10 03.7 20.6 V 691 – Steward Observatory, Kitt Peak-Spacewatch MPS 405940
2012 01 05.24463 07 03 12.88 +25 10 06.0 20.8 V 691 – Steward Observatory, Kitt Peak-Spacewatch MPS 405940
2012 01 15.51852 06 53 42.971 +25 27 28.74 20.6 i F51 – Pan-STARRS 1, Haleakala MPS 407718
2012 01 15.53125 06 53 42.276 +25 27 29.78 20.3 i F51 – Pan-STARRS 1, Haleakala MPS 407718
2013 03 16.33193 13 25 19.92 -06 41 32.3   691 – Steward Observatory, Kitt Peak-Spacewatch MPS 460552
2013 03 16.34720 13 25 19.33 -06 41 29.7   691 – Steward Observatory, Kitt Peak-Spacewatch MPS 460552
2013 03 16.36246 13 25 18.75 -06 41 27.5   691 – Steward Observatory, Kitt Peak-Spacewatch MPS 460552
2013 04 07.33596 13 09 36.03 -05 12 08.0 21.3 V G96 – Mt. Lemmon Survey MPS 462699
2013 04 07.34227 13 09 35.78 -05 12 06.2 21.0 V G96 – Mt. Lemmon Survey MPS 462699
2013 04 07.34865 13 09 35.46 -05 12 04.6 20.8 V G96 – Mt. Lemmon Survey MPS 462699
2013 04 07.35510 13 09 35.13 -05 12 03.2 21.1 V G96 – Mt. Lemmon Survey MPS 462699
2013 04 11.37957 13 06 27.966 -04 54 52.58 21.3 w F51 – Pan-STARRS 1, Haleakala MPS 462699
2013 04 11.39321 13 06 27.302 -04 54 49.23 21.1 w F51 – Pan-STARRS 1, Haleakala MPS 462699
2013 04 11.40695 13 06 26.660 -04 54 45.77 21.2 w F51 – Pan-STARRS 1, Haleakala MPS 462699
2013 04 11.42067 13 06 26.003 -04 54 42.47 21.3 w F51 – Pan-STARRS 1, Haleakala MPS 462699
2015 08 21.42178 22 27 08.680 -13 08 13.14 21.3 w F51 – Pan-STARRS 1, Haleakala MPS 624057
2015 08 21.43293 22 27 08.145 -13 08 16.39 21.3 w F51 – Pan-STARRS 1, Haleakala MPS 624057
2015 08 21.44406 22 27 07.633 -13 08 19.36 21.3 w F51 – Pan-STARRS 1, Haleakala MPS 624057
2015 09 09.36409 22 12 35.878 -14 26 55.36 21.3 w F51 – Pan-STARRS 1, Haleakala MPS 626621
2015 09 09.37526 22 12 35.361 -14 26 57.87 21.4 w F51 – Pan-STARRS 1, Haleakala MPS 626621
2015 09 09.38645 22 12 34.866 -14 27 00.25 21.5 w F51 – Pan-STARRS 1, Haleakala MPS 626621
2015 09 09.39757 22 12 34.354 -14 27 02.40 21.3 w F51 – Pan-STARRS 1, Haleakala MPS 626621
2016 10 26.59574 05 01 11.629 +22 59 41.79 21.1 w F51 – Pan-STARRS 1, Haleakala MPS 739549
2016 10 26.60674 05 01 11.424 +22 59 41.97 21.0 w F51 – Pan-STARRS 1, Haleakala MPS 739549
2016 10 26.61780 05 01 11.223 +22 59 42.35 21.1 w F51 – Pan-STARRS 1, Haleakala MPS 739549
2016 11 11.35487 04 53 36.46 +23 02 28.8 20.3 V G96 – Mt. Lemmon Survey MPS 744946
2016 11 11.35628 04 53 36.28 +23 02 29.0 21.0 V G96 – Mt. Lemmon Survey MPS 744946
2016 11 11.35915 04 53 36.22 +23 02 28.0 20.5 V G96 – Mt. Lemmon Survey MPS 744946
2016 11 11.36059 04 53 36.11 +23 02 28.1 21.2 V G96 – Mt. Lemmon Survey MPS 744946
2016 11 11.36353 04 53 36.00 +23 02 28.1 20.9 V G96 – Mt. Lemmon Survey MPS 744946
2016 11 11.36494 04 53 35.91 +23 02 28.1 21.3 V G96 – Mt. Lemmon Survey MPS 744946
2016 11 11.36782 04 53 35.78 +23 02 28.3 20.9 V G96 – Mt. Lemmon Survey MPS 744946
2016 11 11.36923 04 53 35.74 +23 02 28.0 21.1 V G96 – Mt. Lemmon Survey MPS 744946
2016 11 20.45059 04 46 37.62 +22 59 19.1 20.4 V G96 – Mt. Lemmon Survey MPS 747222
2016 11 20.45534 04 46 37.36 +22 59 18.2 19.8 V G96 – Mt. Lemmon Survey MPS 747222
2016 11 20.45997 04 46 37.11 +22 59 18.9 19.7 V G96 – Mt. Lemmon Survey MPS 747222
2016 11 20.46446 04 46 36.97 +22 59 18.5 19.7 V G96 – Mt. Lemmon Survey MPS 747222
2016 11 23.33077 04 44 08.58 +22 57 34.2 20.2 V G96 – Mt. Lemmon Survey MPS 747222
2016 11 23.33509 04 44 08.37 +22 57 34.1 19.8 V G96 – Mt. Lemmon Survey MPS 747222
2016 11 23.33940 04 44 08.17 +22 57 33.6 20.0 V G96 – Mt. Lemmon Survey MPS 747222
2016 11 23.34374 04 44 07.92 +22 57 33.4 20.1 V G96 – Mt. Lemmon Survey MPS 747222
2016 12 01.24084 04 36 55.65 +22 51 00.8 20.0 V G96 – Mt. Lemmon Survey MPS 749357
2016 12 01.24519 04 36 55.36 +22 51 00.4 20.2 V G96 – Mt. Lemmon Survey MPS 749357
2016 12 01.24952 04 36 55.11 +22 51 00.2 20.2 V G96 – Mt. Lemmon Survey MPS 749357
2016 12 08.35941 04 30 19.97 +22 43 26.3 20.5 V G96 – Mt. Lemmon Survey MPS 751750
2016 12 08.37351 04 30 19.21 +22 43 24.7 20.3 V G96 – Mt. Lemmon Survey MPS 751750
2016 12 08.37907 04 30 18.89 +22 43 24.5 20.6 V G96 – Mt. Lemmon Survey MPS 751750
2016 12 08.38336 04 30 18.63 +22 43 23.8 20.2 V G96 – Mt. Lemmon Survey MPS 751750
2016 12 08.40330 04 30 17.57 +22 43 22.5 20.1 V G96 – Mt. Lemmon Survey MPS 751750
2016 12 08.40636 04 30 17.35 +22 43 22.5 20.3 V G96 – Mt. Lemmon Survey MPS 751750
2016 12 08.40989 04 30 17.10 +22 43 23.0 20.0 V G96 – Mt. Lemmon Survey MPS 751750
2016 12 08.41279 04 30 17.00 +22 43 22.5 19.3 V G96 – Mt. Lemmon Survey MPS 751750
2016 12 25.41338 04 16 46.572 +22 24 15.57 20.8 w F51 – Pan-STARRS 1, Haleakala MPS 755770
2016 12 25.42467 04 16 46.107 +22 24 15.02 20.7 w F51 – Pan-STARRS 1, Haleakala MPS 755770
2016 12 25.43595 04 16 45.655 +22 24 14.30 20.7 w F51 – Pan-STARRS 1, Haleakala MPS 755770
2016 12 25.44719 04 16 45.208 +22 24 13.39 20.8 w F51 – Pan-STARRS 1, Haleakala MPS 755770
2018 02 12.51207 12 05 01.680 +02 32 50.40 21.6 w F51 – Pan-STARRS 1, Haleakala MPS 869881
2018 02 12.52458 12 05 01.353 +02 32 52.79 21.7 w F51 – Pan-STARRS 1, Haleakala MPS 869881
